2019-06-28 00:09:01 r, 18.53m,0000000004Hz,0000134313c,0000000.291s, 035.1C,00002195
2019-06-28 00:19:01 r, 18.54m,0000000003Hz,0000136257c,0000000.296s, 034.8C,00002195
2019-06-28 00:29:01 r, 18.55m,0000000003Hz,0000138194c,0000000.300s, 034.8C,00002195
2019-06-28 00:39:01 r, 18.64m,0000000003Hz,0000148675c,0000000.323s, 034.4C,00002195
2019-06-28 00:49:01 r, 18.62m,0000000003Hz,0000146857c,0000000.319s, 034.4C,00002195
2019-06-28 00:59:01 r, 18.52m,0000000003Hz,0000133139c,0000000.289s, 034.1C,00002195
2019-06-28 01:09:01 r, 18.63m,0000000003Hz,0000146959c,0000000.319s, 034.1C,00002195
2019-06-28 01:19:01 r, 18.64m,0000000003Hz,0000148600c,0000000.322s, 033.8C,00002195
2019-06-28 01:29:01 r, 18.64m,0000000004Hz,0000148455c,0000000.322s, 033.8C,00002195
2019-06-28 01:39:01 r, 18.25m,0000000005Hz,0000103447c,0000000.224s, 033.5C,00002195
2019-06-28 01:49:01 r, 18.35m,0000000004Hz,0000113131c,0000000.246s, 033.1C,00002195
2019-06-28 01:59:01 r, 18.37m,0000000004Hz,0000115028c,0000000.250s, 033.1C,00002195
2019-06-28 02:09:01 r, 18.45m,0000000004Hz,0000124565c,0000000.270s, 033.1C,00002195
2019-06-28 02:19:01 r, 18.56m,0000000003Hz,0000138235c,0000000.300s, 032.8C,00002195
2019-06-28 02:29:01 r, 18.61m,0000000003Hz,0000143999c,0000000.312s, 032.8C,00002195
2019-06-28 02:39:01 r, 18.62m,0000000003Hz,0000145885c,0000000.317s, 032.8C,00002195
2019-06-28 02:49:01 r, 18.62m,0000000003Hz,0000145959c,0000000.317s, 032.5C,00002195
2019-06-28 02:59:01 r, 18.62m,0000000003Hz,0000145933c,0000000.317s, 032.5C,00002195
2019-06-28 03:09:01 r, 18.58m,0000000003Hz,0000140144c,0000000.304s, 032.5C,00002195
2019-06-28 03:19:01 r, 18.52m,0000000004Hz,0000132443c,0000000.287s, 032.5C,00002195
2019-06-28 03:29:01 r, 18.42m,0000000004Hz,0000120959c,0000000.262s, 032.5C,00002195
2019-06-28 03:39:01 r, 18.32m,0000000004Hz,0000110361c,0000000.239s, 032.2C,00002195
2019-06-28 03:49:01 r, 18.05m,0000000006Hz,0000086290c,0000000.187s, 032.2C,00002195
2019-06-28 03:59:01 r, 17.62m,0000000008Hz,0000057757c,0000000.125s, 032.2C,00002195
2019-06-28 04:09:01 r, 17.04m,0000000014Hz,0000034118c,0000000.074s, 032.2C,00002195
2019-06-28 04:19:01 r, 16.15m,0000000031Hz,0000014981c,0000000.033s, 032.2C,00002195
2019-06-28 04:29:01 r, 14.86m,0000000099Hz,0000004596c,0000000.010s, 032.2C,00002195
2019-06-28 04:39:01 r, 13.41m,0000000385Hz,0000000000c,0000000.000s, 031.9C,00002195
2019-06-28 04:49:01 r, 11.90m,0000001536Hz,0000000000c,0000000.000s, 031.9C,00002195
2019-06-28 04:59:01 r, 10.40m,0000006164Hz,0000000000c,0000000.000s, 031.9C,00002195
2019-06-28 05:09:01 r, 09.11m,0000020348Hz,0000000000c,0000000.000s, 031.9C,00002195
2019-06-28 05:19:01 r, 08.04m,0000054270Hz,0000000000c,0000000.000s, 031.9C,00002195
2019-06-28 05:29:01 r, 07.47m,0000091161Hz,0000000000c,0000000.000s, 031.5C,00002195
2019-06-28 05:39:01 r, 06.95m,0000148333Hz,0000000000c,0000000.000s, 031.5C,00002195
2019-06-28 05:49:01 r, 06.51m,0000222946Hz,0000000000c,0000000.000s, 031.5C,00002195
2019-06-28 05:59:01 r, 06.13m,0000316709Hz,0000000000c,0000000.000s, 031.5C,00002195
2019-06-28 06:09:01 r, 05.89m,0000391955Hz,0000000000c,0000000.000s, 031.5C,00002195
2019-06-28 06:19:01 r, 00.00m,0000460813Hz,0000000000c,0000000.000s, 031.9C,00002195
2019-06-28 06:29:01 r, 00.00m,0000535876Hz,0000000000c,0000000.000s, 031.9C,00002195
2019-06-28 06:39:01 r, 00.00m,0000564265Hz,0000000000c,0000000.000s, 032.2C,00002195
2019-06-28 06:49:01 r, 00.00m,0000564240Hz,0000000000c,0000000.000s, 032.5C,00002195
2019-06-28 06:59:01 r, 00.00m,0000564305Hz,0000000000c,0000000.000s, 033.1C,00002195
2019-06-28 07:09:01 r, 00.00m,0000564344Hz,0000000000c,0000000.000s, 033.8C,00002195
2019-06-28 07:19:01 r, 00.00m,0000564495Hz,0000000000c,0000000.000s, 034.8C,00002195
2019-06-28 07:29:01 r, 00.00m,0000564573Hz,0000000000c,0000000.000s, 035.4C,00002195
2019-06-28 07:39:01 r, 00.00m,0000564631Hz,0000000000c,0000000.000s, 035.7C,00002195
2019-06-28 07:49:01 r, 00.00m,0000564595Hz,0000000000c,0000000.000s, 036.4C,00002195
2019-06-28 07:59:01 r, 00.00m,0000564622Hz,0000000000c,0000000.000s, 036.0C,00002195
2019-06-28 08:09:01 r, 00.00m,0000564539Hz,0000000000c,0000000.000s, 036.0C,00002195
2019-06-28 08:19:01 r, 00.00m,0000564524Hz,0000000000c,0000000.000s, 036.0C,00002195
2019-06-28 08:29:01 r, 00.00m,0000564661Hz,0000000000c,0000000.000s, 036.0C,00002195
2019-06-28 08:39:01 r, 00.00m,0000564675Hz,0000000000c,0000000.000s, 036.4C,00002195
2019-06-28 08:49:01 r, 00.00m,0000564672Hz,0000000000c,0000000.000s, 037.0C,00002195
2019-06-28 08:59:01 r, 00.00m,0000564684Hz,0000000000c,0000000.000s, 037.3C,00002195
2019-06-28 09:09:01 r, 00.00m,0000564716Hz,0000000000c,0000000.000s, 038.3C,00002195
2019-06-28 09:19:01 r, 00.00m,0000565173Hz,0000000000c,0000000.000s, 041.2C,00002195
2019-06-28 09:29:01 r, 00.00m,0000565381Hz,0000000000c,0000000.000s, 043.8C,00002195
2019-06-28 09:39:01 r, 00.00m,0000565610Hz,0000000000c,0000000.000s, 046.7C,00002195
2019-06-28 09:49:01 r, 00.00m,0000565730Hz,0000000000c,0000000.000s, 048.6C,00002195
2019-06-28 09:59:01 r, 00.00m,0000565734Hz,0000000000c,0000000.000s, 050.2C,00002195
2019-06-28 10:09:01 r, 00.00m,0000565941Hz,0000000000c,0000000.000s, 051.2C,00002195
2019-06-28 10:19:01 r, 00.00m,0000565810Hz,0000000000c,0000000.000s, 051.8C,00002195
2019-06-28 10:29:01 r, 00.00m,0000565871Hz,0000000000c,0000000.000s, 052.5C,00002195
2019-06-28 10:39:01 r, 00.00m,0000565894Hz,0000000000c,0000000.000s, 053.1C,00002195
2019-06-28 10:49:01 r, 00.00m,0000565962Hz,0000000000c,0000000.000s, 054.1C,00002195
2019-06-28 10:59:01 r, 00.00m,0000565935Hz,0000000000c,0000000.000s, 054.4C,00002195
2019-06-28 11:09:01 r, 00.00m,0000565974Hz,0000000000c,0000000.000s, 054.4C,00002195
2019-06-28 11:19:01 r, 00.00m,0000565959Hz,0000000000c,0000000.000s, 054.4C,00002195
2019-06-28 11:29:01 r, 00.00m,0000565888Hz,0000000000c,0000000.000s, 054.1C,00002195
2019-06-28 11:39:01 r, 00.00m,0000565937Hz,0000000000c,0000000.000s, 054.1C,00002195
2019-06-28 11:49:01 r, 00.00m,0000565977Hz,0000000000c,0000000.000s, 055.4C,00002195
2019-06-28 11:59:01 r, 00.00m,0000565939Hz,0000000000c,0000000.000s, 055.4C,00002195
2019-06-28 12:09:01 r, 00.00m,0000566056Hz,0000000000c,0000000.000s, 056.7C,00002195
2019-06-28 12:19:01 r, 00.00m,0000566113Hz,0000000000c,0000000.000s, 057.0C,00002195
2019-06-28 12:29:01 r, 00.00m,0000566057Hz,0000000000c,0000000.000s, 057.6C,00002195
2019-06-28 12:39:01 r, 00.00m,0000566116Hz,0000000000c,0000000.000s, 058.3C,00002195
2019-06-28 12:49:01 r, 00.00m,0000566084Hz,0000000000c,0000000.000s, 058.9C,00002195
2019-06-28 12:59:01 r, 00.00m,0000566165Hz,0000000000c,0000000.000s, 060.2C,00002195
2019-06-28 13:09:01 r, 00.00m,0000566030Hz,0000000000c,0000000.000s, 058.6C,00002195
2019-06-28 13:19:01 r, 00.00m,0000565968Hz,0000000000c,0000000.000s, 057.6C,00002195
2019-06-28 13:29:01 r, 00.00m,0000566014Hz,0000000000c,0000000.000s, 058.3C,00002195
2019-06-28 13:39:01 r, 00.00m,0000566072Hz,0000000000c,0000000.000s, 059.9C,00002195
2019-06-28 13:49:01 r, 00.00m,0000565919Hz,0000000000c,0000000.000s, 058.0C,00002195
2019-06-28 13:59:01 r, 00.00m,0000565818Hz,0000000000c,0000000.000s, 057.3C,00002195
2019-06-28 14:09:01 r, 00.00m,0000565683Hz,0000000000c,0000000.000s, 055.1C,00002195
2019-06-28 14:19:01 r, 00.00m,0000565556Hz,0000000000c,0000000.000s, 052.8C,00002195
2019-06-28 14:29:01 r, 00.00m,0000565490Hz,0000000000c,0000000.000s, 051.5C,00002195
2019-06-28 14:39:01 r, 00.00m,0000565417Hz,0000000000c,0000000.000s, 050.6C,00002195
2019-06-28 14:49:01 r, 00.00m,0000565429Hz,0000000000c,0000000.000s, 049.9C,00002195
2019-06-28 14:59:01 r, 00.00m,0000565549Hz,0000000000c,0000000.000s, 051.2C,00002195
2019-06-28 15:09:01 r, 00.00m,0000566028Hz,0000000000c,0000000.000s, 057.0C,00002195
2019-06-28 15:19:01 r, 00.00m,0000566030Hz,0000000000c,0000000.000s, 058.0C,00002195
2019-06-28 15:29:01 r, 00.00m,0000566069Hz,0000000000c,0000000.000s, 060.9C,00002195
2019-06-28 15:39:01 r, 00.00m,0000566138Hz,0000000000c,0000000.000s, 062.2C,00002195
2019-06-28 15:49:01 r, 00.00m,0000566101Hz,0000000000c,0000000.000s, 062.2C,00002195
2019-06-28 15:59:01 r, 00.00m,0000566116Hz,0000000000c,0000000.000s, 061.5C,00002195
2019-06-28 16:09:01 r, 00.00m,0000566062Hz,0000000000c,0000000.000s, 060.9C,00002195
2019-06-28 16:19:01 r, 00.00m,0000565989Hz,0000000000c,0000000.000s, 060.5C,00002195
2019-06-28 16:29:01 r, 00.00m,0000566012Hz,0000000000c,0000000.000s, 060.5C,00002195
2019-06-28 16:39:01 r, 00.00m,0000565998Hz,0000000000c,0000000.000s, 060.5C,00002195
2019-06-28 16:49:01 r, 00.00m,0000566016Hz,0000000000c,0000000.000s, 060.5C,00002195
2019-06-28 16:59:01 r, 00.00m,0000565937Hz,0000000000c,0000000.000s, 060.2C,00002195
2019-06-28 17:09:02 r, 00.00m,0000565938Hz,0000000000c,0000000.000s, 060.2C,00002195
2019-06-28 17:19:02 r, 00.00m,0000565982Hz,0000000000c,0000000.000s, 059.6C,00002195
2019-06-28 17:29:02 r, 00.00m,0000565900Hz,0000000000c,0000000.000s, 058.9C,00002195
2019-06-28 17:39:02 r, 00.00m,0000565899Hz,0000000000c,0000000.000s, 058.0C,00002195
2019-06-28 17:49:02 r, 00.00m,0000565815Hz,0000000000c,0000000.000s, 057.6C,00002195
2019-06-28 17:59:02 r, 00.00m,0000565836Hz,0000000000c,0000000.000s, 057.0C,00002195
2019-06-28 18:09:02 r, 00.00m,0000565777Hz,0000000000c,0000000.000s, 056.4C,00002195
2019-06-28 18:19:02 r, 00.00m,0000565657Hz,0000000000c,0000000.000s, 056.4C,00002195
2019-06-28 18:29:02 r, 00.00m,0000565739Hz,0000000000c,0000000.000s, 055.7C,00002195
2019-06-28 18:39:02 r, 00.00m,0000565676Hz,0000000000c,0000000.000s, 055.1C,00002195
2019-06-28 18:49:02 r, 00.00m,0000565646Hz,0000000000c,0000000.000s, 054.7C,00002195
2019-06-28 18:59:02 r, 00.00m,0000565641Hz,0000000000c,0000000.000s, 054.4C,00002195
2019-06-28 19:09:02 r, 00.00m,0000565555Hz,0000000000c,0000000.000s, 053.5C,00002195
2019-06-28 19:19:02 r, 00.00m,0000565558Hz,0000000000c,0000000.000s, 053.1C,00002195
2019-06-28 19:29:02 r, 00.00m,0000565578Hz,0000000000c,0000000.000s, 052.2C,00002195
2019-06-28 19:39:02 r, 00.00m,0000565439Hz,0000000000c,0000000.000s, 051.8C,00002195
2019-06-28 19:49:02 r, 00.00m,0000565394Hz,0000000000c,0000000.000s, 050.9C,00002195
2019-06-28 19:59:02 r, 00.00m,0000565284Hz,0000000000c,0000000.000s, 049.3C,00002195
2019-06-28 20:09:02 r, 00.00m,0000565210Hz,0000000000c,0000000.000s, 048.3C,00002195
2019-06-28 20:19:02 r, 00.00m,0000565097Hz,0000000000c,0000000.000s, 047.3C,00002195
2019-06-28 20:29:02 r, 00.00m,0000565095Hz,0000000000c,0000000.000s, 046.0C,00002195
2019-06-28 20:39:02 r, 00.00m,0000500295Hz,0000000000c,0000000.000s, 045.1C,00002195
2019-06-28 20:49:02 r, 00.00m,0000414676Hz,0000000000c,0000000.000s, 044.4C,00002195
2019-06-28 20:59:02 r, 06.19m,0000297340Hz,0000000000c,0000000.000s, 043.5C,00002195
2019-06-28 21:09:02 r, 06.44m,0000237018Hz,0000000000c,0000000.000s, 042.8C,00002195
2019-06-28 21:19:02 r, 06.76m,0000176781Hz,0000000000c,0000000.000s, 042.2C,00002195
2019-06-28 21:29:02 r, 07.15m,0000122822Hz,0000000000c,0000000.000s, 041.5C,00002195
2019-06-28 21:39:02 r, 07.95m,0000058749Hz,0000000000c,0000000.000s, 040.9C,00002195
2019-06-28 21:49:02 r, 08.85m,0000025695Hz,0000000000c,0000000.000s, 040.6C,00002195
2019-06-28 21:59:02 r, 09.98m,0000009146Hz,0000000000c,0000000.000s, 039.9C,00002195
2019-06-28 22:09:02 r, 11.30m,0000002703Hz,0000000000c,0000000.000s, 039.6C,00002195
2019-06-28 22:19:02 r, 12.72m,0000000724Hz,0000000000c,0000000.000s, 039.3C,00002195
2019-06-28 22:29:02 r, 14.19m,0000000187Hz,0000000000c,0000000.000s, 039.3C,00002195
2019-06-28 22:39:02 r, 15.65m,0000000049Hz,0000009532c,0000000.021s, 039.0C,00002195
2019-06-28 22:49:02 r, 16.73m,0000000018Hz,0000025679c,0000000.056s, 038.6C,00002195
2019-06-28 22:59:02 r, 17.47m,0000000009Hz,0000050701c,0000000.110s, 038.3C,00002195
2019-06-28 23:09:02 r, 17.93m,0000000006Hz,0000077730c,0000000.169s, 038.3C,00002195
2019-06-28 23:19:02 r, 18.25m,0000000005Hz,0000103587c,0000000.225s, 038.0C,00002195
2019-06-28 23:29:02 r, 18.43m,0000000003Hz,0000121032c,0000000.263s, 037.7C,00002195
2019-06-28 23:39:02 r, 18.51m,0000000004Hz,0000132066c,0000000.287s, 037.7C,00002195
2019-06-28 23:49:02 r, 18.57m,0000000003Hz,0000138373c,0000000.300s, 037.3C,00002195
2019-06-28 23:59:02 r, 18.58m,0000000003Hz,0000140808c,0000000.306s, 037.0C,00002195
